#timestamp,LO_Frequency,Hit,StdDev 
1674205215.3,286047001.0,N
1674205235.1,286046998.5,N
1674205255.9,286047001.0,N
1674205275.7,286047001.0,N
1674205295.5,286047001.1,N
1674205315.4,286047000.5,N
1674205335.2,286047001.2,N
1674205355.1,286046996.5,N
1674205356.0,286046996.5,N
1674205375.8,286046995.5,N
1674205395.6,286046997.1,N
1674205415.5,286046999.6,N
1674205435.3,286047000.7,N
1674205455.1,286047000.9,N
1674205475.9,286046998.1,N
1674205495.7,286047001.5,N
1674205515.5,286047003.9,N
1674205535.4,286047005.7,N
1674205555.2,286047007.4,N
1674205575.1,286047003.0,N
1674205576.0,286047003.0,N
1674205595.8,286047005.7,N
1674205615.6,286047004.9,N
1674205635.5,286047001.4,N
1674205655.3,286047002.8,N
1674205675.1,286047002.0,N
1674205695.9,286047001.2,N
1674205715.7,286046996.9,N
1674205735.6,286046997.4,N
1674205755.4,286046999.5,N
1674205775.2,286046996.0,N
1674205795.1,286046994.2,N
1674205796.0,286046994.2,N
1674205815.8,286046993.4,N
1674205835.6,286046993.5,N
1674205855.5,286046995.3,N
1674205875.3,286046997.7,N
1674205895.2,286046997.2,N
1674205915.9,286046997.9,N
1674205935.7,286046998.4,N
1674205955.6,286047000.9,N
1674205975.4,286046997.2,N
1674205995.2,286046995.3,N
1674206015.1,286046994.9,N
1674206016.0,286046994.9,N
1674206035.8,286046997.8,N
1674206055.7,286046991.7,N
1674206075.5,286046991.7,N
1674206095.3,286046993.0,N
1674206115.2,286046993.2,N
1674206135.0,286046994.8,N
1674206135.9,286046986.3,Y
1674206155.7,286046996.9,P
1674206175.6,286046996.5,P
1674206195.4,286046995.4,P
1674206215.3,286046998.3,N
1674206235.1,286047000.1,N
1674206236.0,286047000.1,N
1674206255.8,286046998.9,N
1674206275.7,286047000.3,N
1674206295.5,286047001.8,N
1674206315.3,286047000.5,N
1674206335.2,286047001.5,N
1674206355.0,286047001.6,N
1674206355.9,286047001.6,N
1674206375.8,286047001.3,N
1674206395.6,286047002.2,N
1674206415.4,286046999.8,N
1674206435.3,286047003.1,N
1674206455.1,286047004.6,N
1674206475.9,286047003.9,N
1674206495.7,286047003.0,N
1674206515.5,286047004.8,N
1674206535.4,286047005.9,N
1674206555.2,286047003.3,N
1674206575.0,286047003.7,N
1674206575.9,286047003.7,N
1674206595.8,286047005.1,N
1674206615.6,286047004.1,N
1674206635.5,286047002.9,N
1674206655.3,286047003.0,N
1674206675.1,286047007.0,N
1674206695.9,286047007.3,N
1674206715.1,286047008.8,Y
1674206735.8,286047002.5,P
1674206755.7,286047002.8,P
1674206775.5,286047000.6,N
1674206795.4,286046997.6,N
1674206815.2,286046995.6,N
1674206835.0,286046995.3,N
1674206835.9,286046995.3,N
1674206855.8,286046996.8,N
1674206875.6,286046995.5,N
1674206895.4,286046996.1,N
1674206915.3,286046995.4,N
1674206935.1,286046999.6,N
1674206955.9,286046998.4,N
1674206975.7,286046999.3,N
1674206995.5,286046996.7,N
1674207015.4,286046997.3,N
1674207035.2,286046998.4,N
1674207055.0,286047000.5,N
1674207055.9,286047000.5,N
1674207075.8,286047001.2,N
1674207095.6,286046998.4,N
1674207115.5,286047001.0,N
1674207135.3,286047002.7,N
1674207155.1,286047000.3,N
1674207175.9,286047002.7,N
1674207195.7,286047000.4,N
1674207215.6,286047002.5,N
1674207235.4,286047002.1,N
1674207255.3,286047001.6,N
1674207275.1,286047005.1,N
1674207276.0,286047005.1,N
1674207295.8,286047006.0,N
1674207315.7,286047003.1,N
1674207335.5,286047004.4,N
1674207355.4,286047002.2,N
1674207375.2,286047000.8,N
1674207395.0,286047001.0,N
1674207396.0,286047001.0,N
1674207415.8,286046999.9,N
1674207435.6,286047000.0,N
1674207455.5,286047002.6,N
1674207475.3,286047002.8,N
1674207495.2,286047003.7,N
1674207515.9,286046999.8,N
1674207535.7,286047002.3,N
1674207555.6,286047002.6,N
1674207575.4,286047000.2,N
1674207595.2,286047002.5,N
1674207615.1,286047001.5,N
1674207616.0,286047001.5,N
1674207635.8,286047001.3,N
1674207655.7,286046998.3,N
1674207675.5,286046998.7,N
1674207695.3,286046999.8,N
1674207715.2,286046999.9,N
1674207735.0,286047004.0,N
1674207735.9,286047004.0,N
1674207755.8,286046999.9,N
1674207775.6,286046995.1,N
1674207795.4,286046997.3,N
1674207815.3,286046998.4,N
1674207835.1,286046998.4,N
1674207855.8,286046998.8,N
1674207875.7,286047002.3,N
1674207895.5,286047005.5,N
1674207915.3,286047001.6,N
1674207935.2,286047000.1,N
1674207955.0,286047003.8,N
1674207955.9,286047003.8,N
1674207975.8,286047002.3,N
1674207995.6,286047001.3,N
1674208015.4,286047001.3,N
1674208035.3,286047004.2,N
1674208055.1,286047000.6,N
1674208075.8,286046999.1,N
1674208095.7,286046998.6,N
1674208115.5,286047000.1,N
1674208135.4,286047000.0,N
1674208155.2,286046999.8,N
1674208175.0,286047000.9,N
1674208175.9,286047000.9,N
1674208195.8,286047002.3,N
1674208215.6,286047001.8,N
1674208235.4,286047000.9,N
1674208255.3,286047000.7,N
1674208275.1,286047000.2,N
1674208295.9,286047000.1,N
1674208315.7,286047003.9,N
1674208335.5,286047001.8,N
1674208355.4,286047001.8,N
1674208375.2,286047001.8,N
1674208395.0,286047003.9,N
1674208395.9,286047003.9,N
1674208415.8,286047007.6,Y
1674208435.6,286047003.2,P
1674208455.5,286047004.1,P
1674208475.3,286047002.9,N
1674208495.1,286047001.7,N
1674208515.9,286047002.8,N
1674208535.1,286046999.9,N
1674208555.8,286047002.4,N
1674208575.7,286047002.4,N
1674208595.5,286047000.8,N
1674208615.4,286047001.8,N
1674208635.2,286047001.3,N
1674208655.0,286047002.8,N
1674208655.9,286047002.8,N
1674208675.8,286047001.0,N
1674208695.6,286047002.5,N
1674208715.4,286047001.0,N
1674208735.3,286046998.7,N
1674208755.1,286046998.3,N
1674208775.9,286047000.6,N
1674208795.7,286047000.0,N
